Location: Audruicq
(50.8780°N, 2.0797°E)
Time: 10:25:32
(UTC+00:00)

Ariane Rocket - Pass Details

Date: 15 May 2026
Orbit: 755 x 763 km, 98.4° (Epoch: 6 June)

Event Time Altitude Azimuth Distance (km) Brightness Sun altitude
Exits shadow 20:59:02 14° 150° (SSE) 2,021 4.5 -10.9°
Maximum altitude 21:03:20 66° 71° (ENE) 833 3.1 -11.3°
Drops below altitude 10° 21:08:23 10° 350° (N) 2,310 6.5 -11.8°
Sets 21:10:42 0° 348° (NNW) 3,241 7.5 -12.0°
